Regional Weather Roundup
Issued by NWS Newport/Morehead, NC

Current Version | Previous Version | Graphics & Text | Print | Product List | Glossary Off
Versions: 1 2 3 4 5 6 7 8 9 10 11 12 13 14 15 16 17 18 19 20 21 22 23 24 25 26 27 28 29 30 31 32 33 34 35 36 37 38 39 40 41 42 43 44 45 46 47 48 49 50

000
ASUS42 KMHX 261525
RWRMHX
WEATHER ROUNDUP FOR EASTERN NORTH CAROLINA
NATIONAL WEATHER SERVICE NEWPORT/MOREHEAD CITY NC
1100 AM EDT WED APR 26 2017

NOTE: "FAIR" INDICATES FEW OR NO CLOUDS BELOW 12,000 FEET
WITH NO SIGNIFICANT WEATHER AND/OR OBSTRUCTIONS TO VISIBILITY

NCZ015>017-031-032-045>047-102-103-261600-
NORTH COAST

CITY           SKY/WX    TMP DP  RH WIND       PRES   REMARKS
EDENTON        CLOUDY    66  60  79 W7        29.83R
ELIZABETH CITY CLOUDY    64  60  87 W8        29.82R
KITTY HAWK     CLOUDY    63  62  98 W5        29.81R
MANTEO         CLOUDY    62  60  93 W9        29.83R

$$

NCZ045>047-081-094-103-104-261600-
CENTRAL COAST

CITY           SKY/WX    TMP DP  RH WIND       PRES   REMARKS
FRISCO         CLOUDY    69  60  73 VRB7      29.83R

$$

NCZ095-097-098-100-101-261600-
SOUTHERN COAST

CITY           SKY/WX    TMP DP  RH WIND       PRES   REMARKS
BEAUFORT       CLOUDY    68  61  78 W7        29.85R
CEDAR ISLAND   NOT AVBL
JACKSONVILLE   MOSUNNY   71  61  70 VRB5      29.85R
PINEY ISLAND   CLOUDY   N/A N/A N/A W10       29.84R
WILMINGTON     CLOUDY    72  60  66 W7        29.87R


$$

NCZ011>013-027>030-043-044-078>080-089-090>093-098-261600-
COASTAL PLAIN

CITY           SKY/WX    TMP DP  RH WIND       PRES   REMARKS
AHOSKIE          N/A     65  56  73 NW3       29.83S
CLINTON        PTSUNNY   69  61  76 SW5       29.87R
ELIZABETHTOWN  MOSUNNY   67  59  75 CALM      29.88R
GOLDSBORO      PTSUNNY   70  62  76 W6        29.84R
GREENVILLE     MOSUNNY   68  59  73 N5        29.86S
HAVELOCK       MOSUNNY   72  60  66 NW7       29.85R
KENANSVILLE    CLOUDY    70  61  73 W8        29.86R
KINSTON        SUNNY     70  59  68 W3        29.86R
NEW BERN       MOSUNNY   70  61  73 NW8       29.85R
RICHLANDS      MOSUNNY   72  60  66 W8        29.86R
ROCKY MOUNT    PTSUNNY   70  60  70 NW6       29.83S
WASHINGTON     SUNNY     67  58  73 NW6       29.84R
WHITEVILLE     CLOUDY    67  60  77 SW3       29.88R

$$

AMZ130-135-150-152-154-156-158-170-250-252-270-ANZ085-086-088-633-658-670-261600-
MARINE OBSERVATIONS

STATION/POSITION TIME  TEMP    WIND        PRES    WAVE   SWELL
                       AIR SEA DIR/SP/G            HT/PER HT/PER
                 (UTC) (F)     (DEG/KT/KT) (MB)    (FT/S) (FT/S)
CHESAPEAKE LIGHT NOT AVBL
64 E VA BEACH    1450   56 54  280/ 10/ 12 1008.9    6/ 8   7/ 8
DUCK             1500   63 59  260/ 11/ 13 1009.1
2 E DUCK         1500      60                N/A     4/11   2/11
OREGON INLET     1500   63 64  240/  8/ 11 1009.8
13E OREGON INLT  1448      61                N/A     5/ 9   5/ 9
HATTERAS CG      1500   66 68  270/ 12/ 15 1009.9
DIAMOND BUOY     1450   67 77  270/ 10/ 12 1010.0    7/ 9   7/ 9
CAPE LOOKOUT     1500   66     290/ 10/ 12 1010.5
BEAUFORT LAB     1500   67 65  280/  4/  8 1010.0
30 SE NEW RVR IN 1508   65     300/ 10/ 12 1011.4
30 SE NEW RVR IN 1513      71                N/A     5/10   2/11
27 SE WRIGHTSVLE 1508   67 71  270/  8/ 10 1011.1
5 SE WRIGHTSVLE  1508   68 70  270/  8/ 10 1011.4
225 S CAPE HAT   1450   74 75  220/ 17/ 21 1012.2    8/ 9   3/ 9
41 SE CHARLESTON 1510   72 73  250/ 10/ 12 1011.5

$$




USA.gov is the U.S. government's official web portal to all federal, state and local government web resources and services.